{"data":{"norad_id":42950,"intl_designator":"2017-059A","name":"INTELSAT 37E (IS-37E)","alt_names":[],"object_type":"PAYLOAD","status":"ACTIVE","operator":null,"country":"ITSO","launch_date":"2017-09-29","launch_site_code":"FRGUI","launch_vehicle":null,"mission":null,"orbit_class":"UNKNOWN","rcs_meters":null,"size_class":null,"mass_kg":null,"dimensions":null,"purposes":["comms"],"wikipedia_slug":null,"has_3d_model":false,"image_url":null,"decayed_at":null,"tle_current":{"epoch":"2026-05-25T03:39:25.258752Z","epoch_age_seconds":55772,"freshness":"FRESH","line1":"1 42950U 17059A   26145.15237568  .00000000  00000+0  00000+0 0  9995","line2":"2 42950   0.0192 307.0342 0002471 129.2848 203.2912  1.00269348 31838","mean_motion":1.00269348,"eccentricity":0.0002471,"inclination_deg":0.0192,"raan_deg":307.0342,"arg_perigee_deg":129.2848,"mean_anomaly_deg":203.2912,"bstar":0,"rev_number":3183,"period_min":1436.1318076986,"perigee_km":35776.859080509,"apogee_km":35797.697228678,"semimajor_km":42165.415154593,"source":"CELESTRAK","updated_at":"2026-05-25T13:38:14.336184Z"}}}